Weather History for Plattsburgh, NY

Change the Weather History Date:

Friday, June 6, 2014

  Actual Average Record
Temperature  
Mean Temperature 61 °F 62 °F  
Max Temperature 71 °F 73 °F 88 °F (1959)
Min Temperature 50 °F 51 °F 38 °F (1948)
Degree Days  
Heating Degree Days 4    
Cooling Degree Days 0 1  
Month to date cooling degree days 10 6  
Year to date cooling degree days 23 14  
Since 1 June cooling degree days 10 6  
Growing Degree Days 10 (Base 50)    
Moisture  
Dew Point 53 °F    
Average Humidity 77    
Maximum Humidity 100    
Minimum Humidity 53    
Precipitation  
Precipitation 0.00 in - 1.05 in (2008)
Month to date precipitation 1.27  
Year to date precipitation 10.28  
Sea Level Pressure  
Sea Level Pressure 29.83 in    
Wind  
Wind Speed 6 mph (WNW)    
Max Wind Speed 15 mph    
Max Gust Speed 24 mph    
Visibility 9 miles    
Events      
T = Trace of Precipitation, MM = Missing Value Source: NWS Daily Summary

Daily Weather History Graph

Daily Weather History Graph

Search for Another Location

Airport:

Trip Planner

Search our weather history database for the weather conditions in past years. The results will help you decide how hot, cold, wet, or windy it might be!

Date:

Astronomy

Jun. 06, 2014 Rise Set
Actual Time 5:09 AM EDT 8:36 PM EDT
Civil Twilight 4:33 AM EDT 9:12 PM EDT
Nautical Twilight 3:45 AM EDT 10:00 PM EDT
Astronomical Twilight 2:44 AM EDT 11:01 PM EDT
Moon 1:37 PM EDT (6/6) 1:16 AM EDT (6/6)
Length of Visible Light 16h 39m
Length of Day
15h 26m
First Quarter, 58% of the Moon is Illuminated
Jun 6
First Quarter
Jun 13
Full
Jun 19
Last Quarter
Jun 27
New
Jul 5
First Quarter

Hourly Weather History & Observations

Time (EDT) Temp. Dew Point Humidity Pressure Visibility Wind Dir Wind Speed Gust Speed Precip Events Conditions
12:53 AM 55.0 °F 54.0 °F 96% 29.78 in 10.0 mi SSW 3.5 mph - N/A   Mostly Cloudy
1:53 AM 53.1 °F 53.1 °F 100% 29.77 in 10.0 mi SW 3.5 mph - N/A   Scattered Clouds
2:53 AM 53.1 °F 52.0 °F 96% 29.77 in 10.0 mi Calm Calm - N/A   Partly Cloudy
3:53 AM 53.1 °F 52.0 °F 96% 29.76 in 10.0 mi Calm Calm - N/A   Mostly Cloudy
4:16 AM 51.1 °F 51.1 °F 100% 29.76 in 1.8 mi Calm Calm - N/A   Scattered Clouds
4:29 AM 51.1 °F 51.1 °F 100% 29.76 in 3.0 mi Calm Calm - N/A   Scattered Clouds
4:53 AM 51.1 °F 51.1 °F 100% 29.78 in 9.0 mi Calm Calm - N/A   Mostly Cloudy
5:53 AM 52.0 °F 51.1 °F 97% 29.80 in 10.0 mi Calm Calm - N/A   Overcast
6:50 AM 55.4 °F 53.6 °F 94% 29.81 in 10.0 mi WSW 3.5 mph - N/A   Overcast
6:53 AM 55.0 °F 54.0 °F 96% 29.82 in 10.0 mi WSW 3.5 mph - N/A   Overcast
7:15 AM 55.9 °F 55.0 °F 97% 29.81 in 10.0 mi SW 3.5 mph - N/A   Overcast
7:53 AM 59.0 °F 54.0 °F 83% 29.83 in 10.0 mi NW 6.9 mph - N/A   Overcast
8:53 AM 60.1 °F 53.1 °F 78% 29.84 in 10.0 mi NW 8.1 mph - N/A   Overcast
9:53 AM 64.0 °F 54.0 °F 70% 29.83 in 10.0 mi NW 9.2 mph - N/A   Mostly Cloudy
10:02 AM 63.0 °F 54.0 °F 72% 29.84 in 10.0 mi WNW 5.8 mph - N/A   Mostly Cloudy
11:53 AM 64.0 °F 53.1 °F 67% 29.86 in 10.0 mi WNW 8.1 mph - N/A   Overcast
12:53 PM 66.9 °F 54.0 °F 63% 29.87 in 10.0 mi NW 10.4 mph 19.6 mph N/A   Overcast
1:53 PM 68.0 °F 53.1 °F 59% 29.86 in 10.0 mi NW 8.1 mph - N/A   Mostly Cloudy
2:53 PM 69.1 °F 53.1 °F 57% 29.86 in 10.0 mi NW 9.2 mph - N/A   Overcast
3:53 PM 70.0 °F 53.1 °F 55% 29.87 in 10.0 mi WNW 13.8 mph 24.2 mph N/A   Scattered Clouds
4:53 PM 70.0 °F 52.0 °F 53% 29.86 in 10.0 mi NNW 9.2 mph - N/A   Partly Cloudy
5:53 PM 70.0 °F 52.0 °F 53% 29.86 in 10.0 mi WNW 6.9 mph - N/A   Clear
6:53 PM 70.0 °F 53.1 °F 55% 29.87 in 10.0 mi Variable 4.6 mph - N/A   Partly Cloudy
7:53 PM 68.0 °F 53.1 °F 59% 29.88 in 10.0 mi WNW 5.8 mph - N/A   Scattered Clouds
8:53 PM 64.0 °F 53.1 °F 67% 29.88 in 10.0 mi North - - N/A   Clear
9:53 PM 64.0 °F 54.0 °F 70% 29.89 in 10.0 mi WSW 5.8 mph - N/A   Mostly Cloudy
10:53 PM 64.0 °F 54.0 °F 70% 29.90 in 10.0 mi Variable 5.8 mph - N/A   Overcast
11:53 PM 63.0 °F 54.0 °F 72% 29.90 in 10.0 mi West 6.9 mph - N/A   Partly Cloudy